This demonstration page uses our WeatherBlox Daily Observations layout. Learn more.

Left ArrowRight Arrow

Hourly Observations for October 31, 2022

Temp ( °F °C ) Dew Point ( °F °C ) Humidity (%) Winds ( mph kmh ) Pressure ( in mb ) Visibility ( mi km ) Precip ( " mm )
12:51 am 00:51 Clear 47 8.3 29 -1.7 49 49 ESE 3 6 29.90 1013 10 16 0.00 0.00
1:51 am 01:51 Clear 45 7.2 29 -1.7 53 53 SE 3 6 29.90 1013 10 16 0.00 0.00
2:51 am 02:51 Clear 43 6.1 29 -1.7 57 57 E 3 6 29.90 1013 10 16 0.00 0.00
3:51 am 03:51 Clear 43 6.1 29 -1.7 57 57 ESE 3 6 29.90 1012 10 16 0.00 0.00
4:51 am 04:51 Clear 41 5 29 -1.7 62 62 Calm 29.92 1013 10 16 0.00 0.00
5:51 am 05:51 Clear 41 5 29 -1.7 62 62 NE 3 6 29.94 1014 10 16 0.00 0.00
6:51 am 06:51 Sunny 41 5 29 -1.7 62 62 SSE 3 6 29.96 1015 10 16 0.00 0.00
7:51 am 07:51 Sunny 48 8.9 30 -1.1 49 49 Calm 29.98 1015 10 16 0.00 0.00
8:51 am 08:51 Sunny 55 12.8 30 -1.1 38 38 Calm 29.98 1015 10 16 0.00 0.00
9:51 am 09:51 Sunny 63 17.2 28 -2.2 26 26 Calm 29.96 1015 10 16 0.00 0.00
10:51 am 10:51 Sunny 65 18.3 30 -1.1 27 27 VRB 6 9 29.95 1014 10 16 0.00 0.00
11:51 am 11:51 Sunny 70 21.1 29 -1.7 22 22 NNE 3 6 29.92 1013 10 16 0.00 0.00
12:51 pm 12:51 Sunny 72 22.2 29 -1.7 20 20 VRB 3 6 29.88 1012 10 16 0.00 0.00
1:51 pm 13:51 Sunny 74 23.3 28 -2.2 18 18 SSE 7 11 29.85 1011 10 16 0.00 0.00
2:51 pm 14:51 Sunny 74 23.3 28 -2.2 18 18 Calm 29.84 1011 10 16 0.00 0.00
3:51 pm 15:51 Sunny 74 23.3 27 -2.8 17 17 Calm 29.84 1011 10 16 0.00 0.00
4:51 pm 16:51 Sunny 74 23.3 26 -3.3 17 17 Calm 29.84 1011 10 16 0.00 0.00
5:51 pm 17:51 Clear 69 20.6 26 -3.3 20 20 Calm 29.86 1011 10 16 0.00 0.00
6:51 pm 18:51 Clear 60 15.6 27 -2.8 28 28 Calm 29.89 1012 10 16 0.00 0.00
7:51 pm 19:51 Clear 56 13.3 26 -3.3 31 31 ESE 6 9 29.90 1012 10 16 0.00 0.00
8:51 pm 20:51 Clear 53 11.7 28 -2.2 38 38 N 3 6 29.91 1013 10 16 0.00 0.00
9:51 pm 21:51 Clear 52 11.1 29 -1.7 41 41 SSE 5 7 29.92 1013 10 16 0.00 0.00
10:51 pm 22:51 Clear 49 9.4 28 -2.2 44 44 SSE 5 7 29.93 1013 10 16 0.00 0.00
11:51 pm 23:51 Clear 47 8.3 29 -1.7 49 49 Calm 29.92 1013 10 16 0.00 0.00

Powered by AerisWeather